LRFT Weather Reports


time (UTC)temp
F
wind
direction
speed
knots
gust
knots
rain 1hr
in
rain 24hr
in
rain mn
in
humidity
%
barometer
mb
20260904211900 68 200 7.0 0.0 0.00 0.00 0.00 69 1017.0
20260904210359 68 200 7.0 0.0 0.00 0.00 0.00 69 1017.0
20260904204901 68 200 7.0 0.0 0.00 0.00 0.00 69 1017.0
20260904203400 70 180 7.0 0.0 0.00 0.00 0.00 60 1016.0
20260904201900 70 180 7.0 0.0 0.00 0.00 0.00 60 1016.0
20260904200423 0 0.0 0.0 0.00 0.00 0.00
20260904194859 73 220 7.0 0.0 0.00 0.00 0.00 50 1016.0
20260904193422 0 0.0 0.0 0.00 0.00 0.00
20260904191859 73 220 7.0 0.0 0.00 0.00 0.00 50 1016.0
20260904190401 73 220 7.0 0.0 0.00 0.00 0.00 50 1016.0
20260904184900 75 220 7.8 0.0 0.00 0.00 0.00 44 1016.0
20260904183359 75 220 7.8 0.0 0.00 0.00 0.00 44 1016.0
20260904181905 75 220 7.8 0.0 0.00 0.00 0.00 44 1016.0
20260904180359 75 220 7.8 0.0 0.00 0.00 0.00 44 1016.0
20260904174859 81 240 7.8 0.0 0.00 0.00 0.00 37 1015.0
20260904173400 81 240 7.8 0.0 0.00 0.00 0.00 37 1015.0
20260904171900 81 240 7.8 0.0 0.00 0.00 0.00 37 1015.0
20260904170400 81 240 7.8 0.0 0.00 0.00 0.00 37 1015.0
20260904164859 84 240 9.6 0.0 0.00 0.00 0.00 33 1015.0
20260904163359 84 240 9.6 0.0 0.00 0.00 0.00 33 1015.0
20260904161900 84 240 9.6 0.0 0.00 0.00 0.00 33 1015.0
20260904160359 84 240 9.6 0.0 0.00 0.00 0.00 33 1015.0
20260904154901 84 300 7.8 0.0 0.00 0.00 0.00 33 1015.0
20260904153402 84 300 7.8 0.0 0.00 0.00 0.00 33 1015.0
20260904151900 84 300 7.8 0.0 0.00 0.00 0.00 33 1015.0
20260904150401 84 300 7.8 0.0 0.00 0.00 0.00 33 1015.0
20260904144900 88 320 7.8 0.0 0.00 0.00 0.00 29 1015.0
20260904143400 88 320 7.8 0.0 0.00 0.00 0.00 29 1015.0
20260904141856 88 320 7.8 0.0 0.00 0.00 0.00 29 1015.0
20260904140409 88 320 7.8 0.0 0.00 0.00 0.00 29 1015.0
20260904134900 86 320 9.6 0.0 0.00 0.00 0.00 33 1015.0
20260904133401 86 320 9.6 0.0 0.00 0.00 0.00 33 1015.0
20260904131859 86 320 9.6 0.0 0.00 0.00 0.00 33 1015.0
20260904130400 86 320 9.6 0.0 0.00 0.00 0.00 33 1015.0
20260904124859 84 300 9.6 0.0 0.00 0.00 0.00 33 1016.0
20260904123359 84 300 9.6 0.0 0.00 0.00 0.00 33 1016.0
20260904121901 84 300 9.6 0.0 0.00 0.00 0.00 33 1016.0
20260904120400 84 300 9.6 0.0 0.00 0.00 0.00 33 1016.0
20260904114900 84 280 9.6 0.0 0.00 0.00 0.00 37 1016.0
20260904113400 84 280 9.6 0.0 0.00 0.00 0.00 37 1016.0
20260904111857 84 280 9.6 0.0 0.00 0.00 0.00 37 1016.0
20260904110523 0 0.0 0.0 0.00 0.00 0.00
20260904104949 0 0.0 0.0 0.00 0.00 0.00
20260904103512 0 0.0 0.0 0.00 0.00 0.00
20260904101906 82 280 7.8 0.0 0.00 0.00 0.00 42 1017.0
20260904100406 82 280 7.8 0.0 0.00 0.00 0.00 42 1017.0
20260904094858 81 310 6.1 0.0 0.00 0.00 0.00 45 1017.0
20260904093400 81 310 6.1 0.0 0.00 0.00 0.00 45 1017.0
20260904091859 81 310 6.1 0.0 0.00 0.00 0.00 45 1017.0
20260904090359 81 310 6.1 0.0 0.00 0.00 0.00 45 1017.0
20260904084900 75 290 6.1 0.0 0.00 0.00 0.00 54 1017.0
20260904083400 75 290 6.1 0.0 0.00 0.00 0.00 54 1017.0
20260904081903 75 290 6.1 0.0 0.00 0.00 0.00 54 1017.0
20260904080401 75 290 6.1 0.0 0.00 0.00 0.00 54 1017.0
20260904075021 0 0.0 0.0 0.00 0.00 0.00
20260904073401 72 280 6.1 0.0 0.00 0.00 0.00 61 1017.0
20260904071859 72 280 6.1 0.0 0.00 0.00 0.00 61 1017.0
20260904070400 72 280 6.1 0.0 0.00 0.00 0.00 61 1017.0
20260904064900 64 280 6.1 0.0 0.00 0.00 0.00 73 1017.0
20260904063400 64 280 6.1 0.0 0.00 0.00 0.00 73 1017.0
20260904061901 64 280 6.1 0.0 0.00 0.00 0.00 73 1017.0
20260904060400 64 280 6.1 0.0 0.00 0.00 0.00 73 1017.0
20260904054900 63 40 4.3 0.0 0.00 0.00 0.00 77 1016.0
20260904053400 63 40 4.3 0.0 0.00 0.00 0.00 77 1016.0
20260904051900 63 40 4.3 0.0 0.00 0.00 0.00 77 1016.0
20260904050400 63 40 4.3 0.0 0.00 0.00 0.00 77 1016.0
20260904044900 57 330 5.2 0.0 0.00 0.00 0.00 82 1016.0
20260904043401 57 330 5.2 0.0 0.00 0.00 0.00 82 1016.0
20260904041857 57 330 5.2 0.0 0.00 0.00 0.00 82 1016.0
20260904040400 57 330 5.2 0.0 0.00 0.00 0.00 82 1016.0
20260904034856 57 260 9.6 0.0 0.00 0.00 0.00 88 1016.0
20260904033400 57 260 9.6 0.0 0.00 0.00 0.00 88 1016.0
20260904031900 57 260 9.6 0.0 0.00 0.00 0.00 88 1016.0
20260904030359 57 260 9.6 0.0 0.00 0.00 0.00 88 1016.0
20260904024854 63 4.3 0.0 0.00 0.00 0.00 100 1016.0
20260904023400 0 0.0 0.0 0.00 0.00 0.00
20260904021856 0 0.0 0.0 0.00 0.00 0.00
20260904020400 0 0.0 0.0 0.00 0.00 0.00
20260904014933 0 0.0 0.0 0.00 0.00 0.00
20260904013400 0 0.0 0.0 0.00 0.00 0.00
20260904011900 0 0.0 0.0 0.00 0.00 0.00
20260904010400 0 0.0 0.0 0.00 0.00 0.00
20260904004858 64 2.6 0.0 0.00 0.00 0.00 88 1016.0
20260904003400 64 2.6 0.0 0.00 0.00 0.00 88 1016.0
20260904001859 64 2.6 0.0 0.00 0.00 0.00 88 1016.0
20260904000403 64 2.6 0.0 0.00 0.00 0.00 88 1016.0
20260903234900 0 0.0 0.0 0.00 0.00 0.00
20260903233359 0 0.0 0.0 0.00 0.00 0.00
20260903231922 0 0.0 0.0 0.00 0.00 0.00
20260903230357 0 0.0 0.0 0.00 0.00 0.00
20260903224857 0 0.0 0.0 0.00 0.00 0.00
20260903223359 0 0.0 0.0 0.00 0.00 0.00
20260903221900 0 0.0 0.0 0.00 0.00 0.00
20260903220400 0 0.0 0.0 0.00 0.00 0.00
20260903214859 68 2.6 0.0 0.00 0.00 0.00 60 1017.0
20260903213408 68 2.6 0.0 0.00 0.00 0.00 60 1017.0